SCP
0 0 0 0 0 0 0 0 0 0 0 0 0 1 1 1 1 1 1 1 1 2 2 2 2 2 2 2 2 2 2 2 2 2 2 1 1 1 1 1 1 1 1 1
0 0 0 0 0 0 0 0 0 0 0 0 1 1 1 1 1 1 1 1 1 2 2 3 3 2 2 2 2 2 2 2 2 2 2 1 1 1 1 1 1 1 1 1
0 0 0 0 0 0 0 0 0 0 0 1 1 1 1 1 1 1 1 2 2 2 3 3 3 3 3 3 2 2 2 2 2 2 2 2 1 1 1 2 2 2 2 1
0 0 0 0 0 0 0 0 0 0 1 1 1 1 1 2 2 2 2 2 2 2 3 3 3 3 3 3 3 2 2 2 2 2 2 2 2 2 2 2 2 2 2 2
0 0 0 0 0 0 0 0 0 1 1 1 1 1 1 1 2 2 2 2 2 3 3 3 3 3 3 3 3 3 3 3 3 3 3 2 2 2 2 2 2 2 2 2
0 0 0 0 0 0 0 0 1 1 1 1 1 1 1 1 2 2 2 2 2 3 3 3 3 3 3 3 3 3 3 3 3 3 3 3 3 3 3 3 2 2 2 2
0 0 0 0 0 0 1 1 1 1 1 2 2 2 2 2 2 2 2 2 2 3 3 3 4 4 4 3 3 3 3 3 3 3 3 3 3 3 3 3 2 2 2 1
0 0 0 1 1 1 1 1 1 1 2 2 2 2 2 2 2 2 2 2 2 3 3 4 4 4 4 4 3 3 3 3 3 3 3 3 3 3 3 2 2 2 2 1
0 0 1 1 1 1 1 1 1 1 1 2 2 2 2 2 2 2 2 2 2 3 3 4 4 4 4 4 4 4 3 3 3 3 2 3 3 3 2 2 2 1 1 1
1 1 1 1 1 1 1 1 1 1 1 1 1 1 2 2 2 2 2 2 3 3 3 3 3 3 4 4 4 3 3 3 2 2 2 2 2 2 2 1 1 1 1 1
1 1 1 1 0 0 0 1 1 1 1 1 1 1 2 2 2 2 2 3 3 3 3 3 3 3 3 3 3 3 3 2 2 2 2 2 2 1 1 1 1 1 1 1
1 1 1 1 1 0 0 0 1 1 1 1 1 1 2 2 2 2 3 3 3 3 3 3 3 3 3 3 3 3 2 2 1 1 1 1 1 1 1 0 0 0 0 0
1 1 1 1 1 1 1 1 1 1 1 1 1 1 1 2 2 2 3 3 3 3 3 2 2 2 2 2 2 2 2 1 1 1 1 1 1 1 1 0 0 0 0 0
0 0 1 1 1 1 1 1 1 1 1 1 1 1 1 2 2 2 3 3 3 2 2 2 2 2 2 2 2 2 2 1 1 1 1 1 1 1 1 0 0 0 0 0
0 0 0 0 1 1 1 1 1 1 1 1 1 1 2 2 2 2 2 2 2 2 2 2 2 2 2 2 2 2 1 1 1 1 1 1 1 1 0 0 0 0 0 0
0 0 0 0 0 1 1 1 1 1 1 1 1 1 1 2 2 2 2 2 2 2 2 2 1 1 1 1 1 1 1 1 1 1 1 0 0 0 0 0 0 0 0 0
0 0 0 0 0 1 1 1 1 1 1 1 1 1 1 1 2 2 2 1 1 1 1 1 1 1 1 1 1 1 1 1 0 0 0 0 0 0 0 0 0 0 0 0
0 0 0 0 0 0 1 1 1 1 1 1 1 1 1 1 1 1 1 1 1 1 1 1 1 1 1 1 1 1 1 0 0 0 0 0 0 0 0 0 0 0 0 0
0 0 0 0 0 0 0 1 1 1 1 1 1 1 1 1 1 1 1 1 1 1 1 1 1 1 1 1 1 0 0 0 0 0 0 0 0 0 0 0 0 0 0 0
0 0 0 0 0 0 0 0 0 0 1 1 1 1 1 1 1 1 1 1 1 1 1 1 1 1 1 0 0 0 0 0 0 0 0 0 0 0 0 0 0 0 0 0
0 0 0 0 0 0 0 0 0 0 0 0 0 1 1 1 1 1 1 1 1 1 1 1 1 1 0 0 0 0 0 0 0 0 0 0 0 0 0 0 0 0 0 0
0 0 0 0 0 0 0 0 0 0 0 0 0 0 1 1 1 1 1 1 1 1 1 1 0 0 0 0 0 0 0 0 0 0 0 0 0 0 0 0 0 0 0 0
0 0 0 0 0 0 0 0 0 0 0 0 0 0 1 1 1 1 1 1 1 0 0 0 0 0 0 0 0 0 0 0 0 0 0 0 0 0 0 0 0 0 0 0
0 0 0 0 0 0 0 0 0 0 0 0 0 1 1 1 1 0 0 0 0 0 0 0 0 0 0 0 0 0 0 0 0 0 0 0 0 0 0 0 0 0 0 0
0 0 0 0 0 0 0 0 0 0 0 0 0 0 0 0 0 0 0 0 0 0 0 0 0 0 0 0 0 0 0 0 0 0 0 0 0 0 0 0 0 0 0 0
0 0 0 0 0 0 0 0 0 0 0 0 0 0 0 0 0 0 0 0 0 0 0 0 0 0 0 0 0 0 0 0 0 0 0 0 0 0 0 0 0 0 0 0
0 0 0 0 0 0 0 0 0 0 0 0 0 0 0 0 0 1 1 1 0 0 0 0 0 0 0 0 0 0 0 0 0 0 0 0 0 0 0 0 0 0 0 0
Wind_Speed
14 13 10 11 12 14 14 11 8 5 3 2 1 2 5 6 7 7 6 7 6 7 7 6 7 7 8 8 7 8 8 8 7 6 5 4 4 3 2 2 3 2 2 2
12 13 13 13 12 13 12 11 10 8 4 3 3 3 4 5 5 5 4 5 5 6 7 6 6 6 7 7 7 6 7 7 6 6 5 5 4 4 3 2 2 2 1 1
11 12 14 13 11 11 11 9 8 6 3 2 2 5 5 5 5 3 3 3 3 4 5 5 6 6 6 7 7 7 6 6 7 6 6 5 5 4 3 3 3 2 2 2
10 11 14 8 6 9 10 6 2 2 2 1 4 6 6 6 4 3 3 2 1 3 4 6 7 7 6 6 7 7 7 7 7 7 6 5 5 4 4 3 3 2 2 3
9 11 11 9 7 7 6 2 5 3 3 3 3 4 5 5 5 4 3 3 1 1 3 4 5 6 6 6 6 7 7 6 6 6 6 6 5 5 4 3 3 3 3 3
9 11 10 4 4 6 7 3 4 5 5 5 3 0 2 5 4 3 3 2 2 1 2 3 4 5 6 6 6 6 6 6 6 6 6 5 5 4 4 4 3 3 3 3
11 10 7 4 5 5 6 0 5 6 6 6 5 3 3 4 4 3 3 3 2 2 1 3 4 5 5 5 5 4 5 5 6 5 5 5 5 4 4 4 4 3 3 3
10 10 6 5 4 3 3 5 5 6 6 6 5 4 4 4 4 3 3 3 3 2 2 2 4 5 5 4 3 4 4 5 5 5 5 5 5 5 5 4 4 4 3 3
2 1 3 5 4 5 5 5 5 5 5 5 5 4 4 3 3 3 3 2 2 2 2 2 3 4 4 3 4 4 4 4 4 4 3 4 5 5 4 4 4 4 4 4
2 1 2 4 4 4 4 5 5 5 4 4 4 4 3 3 2 2 2 1 1 1 1 2 2 3 3 4 5 5 5 4 4 4 4 4 3 3 4 4 4 4 4 3
3 2 3 2 4 5 5 5 6 6 5 4 4 4 3 2 2 2 1 1 1 1 1 2 2 2 3 4 4 5 4 4 4 4 4 3 3 1 2 1 2 2 2 3
3 4 4 4 4 4 4 3 4 4 5 4 4 4 4 3 2 1 0 1 1 1 1 2 2 2 3 3 4 4 4 4 4 4 4 4 4 2 4 2 3 4 2 2
5 5 5 6 7 6 4 4 4 4 4 4 4 4 3 2 2 0 1 1 1 2 2 2 3 3 3 3 3 3 4 3 3 4 4 5 5 5 3 1 3 3 3 4
6 6 6 7 7 6 4 4 4 4 4 4 3 3 2 2 1 0 1 1 2 2 2 2 2 2 2 3 3 3 3 3 3 3 3 4 4 4 4 4 3 2 2 4
6 6 6 6 7 6 4 4 4 4 4 4 4 3 2 2 1 1 1 2 2 2 2 2 2 2 2 3 3 3 3 3 3 3 3 3 3 4 4 4 4 4 3 3
6 6 7 7 7 6 6 5 5 5 5 5 4 3 2 2 1 0 1 2 2 1 1 2 2 2 2 3 3 3 2 3 4 3 4 3 3 4 4 3 4 3 4 4
6 7 7 7 7 7 7 6 5 5 5 5 4 3 2 1 1 1 0 1 1 1 2 2 2 2 2 2 2 2 2 3 4 3 3 3 3 3 3 3 3 3 3 4
6 7 8 8 8 7 7 6 5 4 4 3 2 2 2 1 1 1 1 1 1 1 1 2 3 3 2 2 1 1 2 2 2 2 1 1 1 1 2 2 3 3 3 4
5 5 6 7 5 5 4 4 4 4 3 2 2 1 1 0 1 1 1 1 1 1 1 2 4 3 3 2 2 2 2 2 2 2 2 2 2 2 2 3 3 3 3 3
5 6 6 5 4 4 3 3 3 3 3 2 2 1 0 1 1 0 1 1 1 1 2 3 3 2 2 2 2 2 2 3 3 3 2 3 3 3 3 3 3 3 3 3
6 6 6 5 4 4 4 3 3 3 3 2 2 1 0 0 0 0 1 1 1 1 3 3 2 2 1 1 3 3 3 3 3 3 3 3 3 3 3 3 3 3 3 3
6 5 5 5 4 4 4 4 3 3 3 2 2 2 1 1 1 1 1 1 1 1 1 2 1 1 1 1 2 2 2 2 2 2 2 2 2 2 2 2 3 2 2 2
4 4 4 4 4 4 4 4 4 3 3 2 3 2 2 1 1 2 1 1 1 1 1 0 1 2 0 2 2 2 2 2 2 2 2 2 2 2 2 2 2 2 2 2
3 3 3 3 4 3 4 4 4 3 3 2 2 2 2 2 2 2 1 1 2 3 1 1 3 2 2 2 2 2 2 2 2 2 2 3 3 2 2 2 2 2 2 2
2 3 3 3 3 3 3 3 3 2 2 2 2 2 2 2 2 1 1 1 3 3 2 3 3 3 3 2 2 2 2 2 2 2 2 2 2 2 2 2 2 2 2 2
2 2 2 3 3 3 3 2 2 2 2 2 1 1 1 1 1 1 1 1 2 2 2 1 2 3 3 2 2 2 2 1 1 2 2 2 2 2 1 1 3 3 2 2
1 1 2 2 2 2 2 2 2 1 1 1 2 2 2 1 0 1 1 1 1 1 1 1 1 2 2 2 2 2 2 1 1 1 1 1 2 2 2 2 2 2 2 2
Wind_Direction
265 272 258 246 243 242 248 259 260 259 213 203 205 122 107 119 133 128 133 144 157 153 144 146 151 159 161 163 163 163 163 164 162 160 153 149 146 142 138 141 136 131 135 138
260 266 268 257 246 252 250 251 250 252 256 202 178 119 100 96 102 118 142 152 149 147 147 152 156 164 163 161 159 156 162 161 154 154 155 155 155 153 142 133 119 121 117 92
257 255 260 255 255 259 259 256 254 255 265 197 141 101 103 95 95 99 99 126 140 154 154 161 164 165 166 165 162 163 162 161 159 163 163 165 165 153 145 139 125 120 113 99
257 255 251 255 274 274 265 261 306 301 314 7 83 92 90 84 74 61 52 46 134 164 164 170 164 161 161 166 166 167 169 167 167 169 166 162 161 158 154 150 141 128 121 113
257 250 246 249 250 259 258 291 358 359 5 13 58 103 100 75 66 56 47 27 24 159 165 160 159 158 159 168 169 171 172 169 167 168 167 169 169 165 158 152 144 147 144 130
252 258 253 256 269 268 253 220 7 1 14 17 10 303 79 48 51 43 37 35 32 51 130 148 155 152 161 170 173 178 175 169 164 167 168 169 165 160 156 154 159 156 143 138
247 252 257 322 321 291 254 346 19 16 17 16 22 24 40 39 41 36 36 33 48 64 85 140 146 148 162 170 180 175 163 160 161 165 164 161 156 158 158 160 160 157 147 148
239 247 246 350 334 332 13 34 25 23 29 29 30 35 37 42 31 25 27 30 38 51 65 107 131 145 160 168 164 150 155 159 159 160 172 163 158 162 163 165 167 168 169 172
259 265 51 18 34 32 19 22 22 23 24 19 8 12 32 34 20 15 22 27 38 54 67 95 116 140 155 143 134 140 147 152 153 160 159 155 168 172 170 175 192 189 186 187
277 123 32 8 27 18 18 10 8 12 11 4 352 347 359 3 354 348 3 28 46 93 108 108 117 138 144 143 137 144 156 156 159 164 167 160 169 178 186 194 200 197 193 187
255 295 320 353 352 350 9 15 9 350 350 345 344 334 326 325 324 315 348 63 74 111 123 126 122 133 137 136 146 159 163 161 167 173 172 158 158 143 186 181 215 202 200 189
314 348 329 336 351 347 336 347 349 343 340 335 329 317 316 316 314 316 84 102 103 104 116 128 132 132 129 134 156 166 173 174 180 183 169 170 169 144 58 77 98 95 102 133
341 337 338 336 336 329 321 327 340 335 332 333 334 323 310 308 312 322 142 117 126 131 123 124 140 144 141 144 159 173 175 174 180 187 182 187 185 184 176 101 67 86 123 139
334 334 332 330 324 321 328 338 339 335 329 323 321 313 306 300 295 205 152 134 125 125 120 123 131 133 143 150 158 168 171 174 187 198 197 202 198 198 193 187 187 182 183 175
323 320 311 312 306 304 314 318 319 320 326 328 325 316 306 296 283 257 124 123 116 113 113 118 126 136 144 160 165 178 184 185 197 207 212 208 201 205 203 193 189 183 170 168
311 305 305 302 299 308 312 316 312 312 314 313 314 309 299 293 288 158 128 129 134 129 118 122 140 152 159 167 172 187 195 193 203 212 215 208 205 204 200 191 184 190 188 176
298 299 298 296 300 307 308 306 304 303 306 309 314 308 291 245 167 136 146 101 93 107 127 138 148 145 157 178 189 197 187 191 211 221 216 208 207 213 205 198 195 197 194 184
290 296 303 301 298 298 299 307 312 319 319 316 313 307 297 267 190 147 109 77 70 90 142 154 148 142 152 161 176 192 196 199 206 223 222 216 226 218 210 218 212 205 192 178
292 295 296 296 300 303 314 330 334 332 333 339 346 337 323 359 84 102 107 121 181 218 196 155 145 158 163 161 199 200 196 181 189 215 199 187 218 228 222 225 226 222 212 188
303 297 296 303 310 316 323 327 327 331 331 324 324 327 359 21 31 184 188 210 213 215 142 133 156 184 184 179 218 214 211 200 199 204 202 207 216 221 223 224 222 223 225 224
298 296 298 301 309 322 326 327 321 315 309 308 308 295 296 306 345 321 278 297 39 119 144 151 178 187 199 194 212 231 224 210 213 211 213 217 218 221 223 222 222 224 227 231
307 306 310 317 323 328 333 323 308 298 295 296 290 279 251 226 229 247 265 277 293 99 155 176 191 80 38 190 216 255 258 239 236 233 238 242 233 230 233 238 239 236 237 231
321 317 313 316 317 319 320 311 302 291 281 275 273 268 253 245 258 254 264 266 200 165 204 203 95 97 358 246 267 282 276 259 252 252 258 262 258 252 242 244 245 232 237 237
318 310 303 304 309 307 309 306 298 290 279 265 263 255 227 216 228 235 235 179 151 160 184 108 138 164 215 246 276 285 288 280 262 254 254 257 256 249 250 252 258 243 224 231
303 308 302 290 288 288 289 282 275 280 277 267 256 232 233 226 221 217 200 152 150 162 158 159 175 202 232 258 267 276 278 287 286 272 261 265 268 268 265 267 266 264 255 238
303 286 297 301 301 296 296 294 289 288 286 281 290 280 260 216 189 197 199 196 170 184 192 173 184 213 243 261 269 275 271 248 260 269 276 277 279 277 274 277 284 280 276 274
302 287 274 281 292 301 309 306 294 304 319 326 314 300 303 311 120 140 178 181 170 192 179 195 215 223 237 258 267 268 273 276 291 314 330 335 324 310 313 311 302 300 306 316